SCP
0 0 -0 -0 -0 -0 -0 -0 -0 0 0 0 0 -0 -0 -0 -0 0 0 0 0 0 0 0 0 0 0 0 0 0 0 0 0 0 0 0 0 0 0 0 0 0 0 0 0
0 0 0 0 0 0 0 0 0 0 0 0 0 -0 -0 0 0 0 0 0 0 0 0 0 0 0 0 0 0 0 0 0 0 0 0 0 0 0 0 0 0 0 0 0 0
0 0 0 0 0 0 0 0 0 0 0 0 0 0 0 0 0 0 0 0 0 0 0 0 0 0 0 0 0 0 0 0 0 0 0 0 0 0 0 0 0 0 0 0 -0
0 0 0 0 0 0 0 0 0 0 0 0 0 0 0 0 0 0 0 0 0 0 0 0 0 0 0 0 0 0 0 0 0 0 0 0 0 0 0 0 0 0 0 0 -0
0 0 0 0 0 0 0 0 0 0 0 0 0 0 0 0 0 0 0 0 0 0 0 0 0 0 0 0 0 0 0 0 0 0 0 0 0 0 0 0 0 0 0 0 0
0 0 0 0 0 0 0 0 0 0 0 0 0 0 0 0 0 0 0 0 0 0 0 0 0 0 0 0 0 0 0 0 0 0 0 0 0 0 0 0 0 0 0 0 0
0 0 0 0 0 0 0 0 0 0 0 0 0 0 0 0 0 0 0 0 0 0 0 0 0 0 0 0 0 0 0 0 0 0 0 0 0 0 0 0 0 0 0 0 0
0 0 0 0 0 0 0 0 0 0 0 0 0 0 0 0 0 0 0 0 0 0 0 0 0 0 0 0 0 0 0 0 0 0 0 0 0 0 0 0 0 0 0 0 0
0 0 0 0 0 0 0 0 0 0 0 0 0 0 0 0 0 0 0 0 0 0 0 0 0 0 0 0 0 0 0 0 0 0 0 0 0 0 0 0 0 0 0 0 0
0 0 0 0 0 0 0 0 0 0 0 0 0 0 0 0 0 0 0 0 0 0 0 0 0 0 0 0 0 0 0 0 0 0 0 0 0 0 0 0 0 0 0 0 0
0 0 0 0 0 0 0 0 0 0 0 0 0 0 0 0 0 0 0 0 0 0 0 0 0 0 0 0 0 0 0 0 0 0 0 0 0 0 0 0 0 0 0 0 0
0 0 0 0 0 0 0 0 0 0 0 0 0 0 0 0 0 0 0 0 0 0 0 0 0 0 0 0 0 0 0 0 0 0 0 0 0 0 0 0 0 0 0 0 0
0 0 0 0 0 0 0 0 0 0 0 0 0 0 0 0 0 0 0 0 0 0 0 0 0 0 0 0 0 0 0 0 0 0 0 0 -0 0 0 0 0 0 0 0 0
0 0 0 0 0 0 0 0 0 0 0 0 0 0 0 0 0 0 0 0 0 0 0 0 0 0 0 0 0 0 0 0 0 0 0 0 -0 0 0 0 0 0 0 0 0
0 0 0 0 0 0 0 0 0 0 0 0 0 0 0 0 0 0 0 0 0 0 0 0 0 0 0 0 0 0 0 0 0 0 0 0 0 0 0 0 0 0 0 0 0
0 0 0 0 0 0 0 0 0 0 0 0 0 0 0 0 0 0 0 0 0 0 0 0 0 0 0 0 0 0 0 0 0 0 0 0 0 0 0 0 0 0 0 0 0
0 0 0 0 0 0 0 0 0 0 0 0 0 0 0 0 0 0 0 0 0 0 0 0 0 0 0 0 0 0 0 0 0 0 0 0 0 0 0 0 0 0 0 0 0
0 0 0 0 0 0 0 0 0 0 0 0 0 0 0 0 0 0 0 0 0 0 0 0 0 0 0 0 0 0 0 0 0 0 -0 0 0 0 0 0 0 0 0 0 0
0 0 0 0 0 0 0 0 0 0 0 0 0 0 0 0 0 0 0 0 0 0 0 0 0 0 0 0 0 0 0 0 0 0 0 0 0 0 0 0 0 0 0 0 0
0 0 0 0 0 0 0 0 0 0 0 0 0 0 0 0 0 0 0 0 0 0 0 0 0 0 0 0 0 0 0 0 0 0 0 0 0 0 0 0 0 0 0 0 0
0 0 0 0 0 0 0 0 0 0 0 0 0 0 0 0 0 0 0 0 0 0 0 0 0 0 0 0 0 0 0 0 0 0 0 0 0 0 0 0 0 0 0 0 0
0 0 0 0 0 0 0 0 0 0 0 0 0 0 0 0 0 0 0 0 0 0 0 0 0 0 0 0 0 0 0 0 0 0 0 0 0 0 0 0 0 0 0 0 0
0 0 0 0 0 0 0 0 0 0 0 0 0 0 0 0 0 0 0 0 0 0 0 0 0 0 0 0 0 0 0 0 0 0 0 0 0 0 0 0 0 0 0 0 0
0 0 0 0 0 0 0 0 0 0 0 0 0 0 0 0 0 0 0 0 0 0 0 0 0 0 0 0 0 0 0 0 0 0 0 0 0 0 0 0 0 0 0 0 0
0 0 0 0 0 0 0 0 0 0 0 0 0 0 0 0 0 0 0 0 0 0 0 0 0 0 0 0 0 0 0 0 0 0 0 0 0 0 0 0 0 0 0 0 0
0 0 0 0 0 0 0 0 0 0 0 0 0 0 0 0 0 0 0 0 0 0 0 0 0 0 0 0 0 0 0 0 0 0 0 0 0 0 0 0 0 0 0 0 0
0 0 0 0 0 0 0 0 0 0 0 0 0 0 0 0 0 0 0 0 0 0 0 0 0 0 0 0 0 0 0 0 0 0 0 0 0 0 0 0 0 0 0 0 0
Wind_Speed_500mb
8 10 12 15 17 19 21 22 23 23 22 17 10 3 1 1 3 8 10 10 9 6 2 4 3 11 11 5 5 6 7 8 7 11 5 16 18 12 14 11 18 23 23 21 22
11 12 14 16 18 19 20 22 22 22 22 19 14 5 9 11 12 15 15 12 7 4 3 4 5 17 6 3 2 7 6 6 3 8 6 14 22 16 13 19 21 28 44 37 29
15 16 15 16 19 21 21 20 22 23 23 22 18 14 8 13 16 17 24 17 9 3 1 3 5 16 7 6 4 3 6 3 6 12 10 11 13 14 16 22 34 38 37 48 44
20 21 20 20 21 22 25 26 25 25 25 25 22 16 12 11 10 13 26 22 14 8 4 5 4 7 7 7 6 7 9 7 3 9 10 10 9 13 34 45 25 26 32 37 53
27 26 27 28 27 27 27 29 30 29 29 27 26 20 15 15 26 20 27 26 21 14 10 9 8 7 7 8 5 9 7 10 12 13 16 13 22 20 37 45 45 45 37 40 49
33 32 32 32 33 33 33 32 34 33 32 32 29 24 18 17 20 23 29 30 27 21 16 12 9 7 4 7 9 4 9 15 13 17 14 14 14 6 16 21 36 47 50 49 53
37 37 38 37 37 37 37 36 38 37 35 35 32 25 28 32 25 25 28 31 29 24 19 14 10 6 7 4 4 3 13 14 24 12 10 11 16 24 44 32 30 39 43 49 57
43 42 41 42 40 43 41 40 40 39 39 37 32 24 20 27 26 30 29 28 25 21 17 13 11 7 5 8 2 6 5 9 9 17 6 10 30 24 22 29 37 39 40 48 58
48 47 46 44 43 45 46 43 43 42 37 34 24 18 16 22 26 31 29 24 22 18 14 11 9 6 7 7 9 10 20 17 9 23 8 22 30 8 20 27 41 46 46 50 53
54 52 49 46 44 46 46 45 44 40 31 21 24 10 29 17 19 22 28 27 19 17 9 10 6 7 6 13 25 23 15 17 21 10 17 20 40 44 54 38 66 70 58 56 56
52 54 52 47 45 44 46 36 17 12 14 17 9 13 13 20 17 19 27 27 20 13 13 5 13 32 34 34 27 14 15 33 31 7 11 35 39 49 62 56 69 71 62 57 62
51 53 52 47 43 38 38 20 20 17 21 31 43 49 52 37 17 30 29 23 19 22 14 8 30 37 2 12 18 18 26 40 27 5 14 27 43 46 45 61 71 73 72 53 49
50 52 52 44 39 35 30 25 19 14 13 18 40 38 48 44 29 36 37 23 14 19 28 33 24 6 17 16 21 23 35 29 22 10 13 21 33 15 14 37 50 67 66 46 46
42 46 50 39 29 27 17 9 4 5 11 11 11 14 19 18 10 27 41 16 10 23 18 20 13 21 15 22 27 27 20 22 16 10 24 6 39 27 21 21 23 62 42 37 44
37 34 37 29 16 17 12 10 7 3 18 3 6 7 15 15 7 8 33 18 16 15 13 12 11 15 20 18 23 11 5 10 6 15 12 24 20 20 3 13 35 34 42 38 42
34 30 30 22 22 26 18 13 11 7 21 6 8 8 8 8 4 9 10 6 5 8 10 15 3 9 6 6 1 16 6 3 3 6 19 36 30 11 9 14 18 25 28 28 30
39 35 38 27 15 26 28 20 9 18 6 14 13 12 6 12 11 14 14 17 16 11 20 9 20 7 8 8 5 10 8 12 14 12 27 5 16 35 25 22 26 33 27 21 25
47 48 50 40 22 25 41 9 31 17 33 6 9 11 19 25 14 19 14 16 24 11 4 12 26 26 22 33 11 22 15 12 24 30 46 15 23 27 21 37 50 25 37 24 28
58 65 67 57 35 36 31 20 28 23 16 16 5 11 16 10 11 16 27 19 23 41 27 18 28 5 3 4 10 17 16 5 9 4 18 24 48 15 13 24 18 37 32 47 49
77 80 90 70 47 48 13 51 25 25 18 14 39 33 41 31 19 22 24 14 17 31 47 5 21 7 6 2 1 9 13 8 7 13 37 52 60 34 22 30 18 21 37 49 45
86 33 39 63 64 40 23 30 22 38 27 26 43 33 31 33 30 25 32 14 18 13 20 8 13 8 10 24 31 12 12 10 5 12 20 40 30 8 12 11 21 27 44 34 41
62 10 37 54 31 15 23 23 17 17 24 22 8 25 45 33 28 27 39 30 40 25 23 17 8 24 46 5 6 18 32 37 19 20 20 26 62 8 13 9 12 20 32 31 28
23 23 46 89 21 26 26 22 24 25 24 25 30 25 21 32 22 33 39 27 31 25 23 19 10 14 26 11 4 16 19 24 35 32 62 26 56 19 23 7 17 23 41 43 42
20 5 11 50 35 38 38 44 32 38 33 17 11 14 7 23 28 28 35 10 22 20 5 31 10 26 41 43 2 12 27 38 47 37 46 51 65 81 61 47 47 61 51 62 73
23 11 26 12 26 29 35 13 43 28 29 31 13 41 44 35 46 40 50 40 10 10 4 14 28 30 43 55 46 47 36 38 57 59 50 63 51 70 63 49 54 70 62 73 73
24 10 24 17 54 48 43 35 55 54 39 30 37 43 52 54 46 40 45 42 32 9 17 10 36 37 52 60 61 63 45 63 59 65 48 49 57 63 75 93 76 106 76 84 86
30 41 46 29 24 30 45 54 59 53 59 73 58 41 43 52 81 98 79 47 20 32 33 19 16 19 42 48 41 29 68 64 80 70 57 60 71 66 68 64 65 96 76 77 88
Wind_Direction_500mb
334 343 349 355 1 6 10 11 13 15 24 26 29 247 271 348 223 218 209 178 170 167 144 201 259 187 184 201 179 167 227 234 218 193 159 168 199 194 208 201 204 208 223 227 204
313 321 330 335 340 347 351 353 355 356 357 2 359 331 250 250 272 254 222 203 196 177 175 189 187 171 188 181 189 226 257 238 192 189 222 195 215 198 197 206 230 233 235 232 221
307 314 318 321 325 328 331 334 337 339 340 340 341 329 279 262 278 243 216 210 214 216 210 189 167 180 184 175 190 213 263 175 231 225 211 211 219 203 228 232 232 227 230 231 222
307 313 316 319 322 323 324 325 325 326 328 328 327 319 292 250 245 209 206 215 217 237 283 284 223 185 193 204 188 239 243 225 229 203 188 216 179 217 224 245 253 248 243 236 221
297 301 306 311 314 316 318 319 318 318 319 320 319 310 287 252 249 237 217 218 223 231 243 253 239 185 223 194 197 230 216 225 245 241 230 226 235 246 246 251 255 258 253 238 227
291 296 299 303 308 311 312 313 310 310 312 311 309 299 273 246 257 235 224 224 229 233 241 247 236 245 187 203 223 198 256 259 263 246 237 231 245 226 256 228 231 243 247 242 233
287 291 295 299 304 305 308 310 306 306 303 302 300 288 269 267 262 238 229 231 236 237 237 245 236 211 175 208 234 300 290 274 228 225 237 210 253 233 256 248 243 241 239 236 236
281 285 289 294 300 302 306 309 306 305 302 299 295 277 258 263 250 240 233 234 233 233 236 232 230 224 179 159 127 242 252 258 155 174 198 199 273 245 254 241 244 241 235 237 234
274 278 282 286 292 296 301 306 306 304 298 288 275 250 262 257 243 236 225 221 221 221 219 217 211 195 161 226 258 215 272 235 272 205 146 211 272 255 246 247 256 251 243 242 238
270 272 276 281 287 292 297 305 307 301 282 265 245 242 242 240 234 226 218 214 208 204 194 202 189 227 202 204 259 266 247 253 261 186 214 225 256 275 271 250 262 267 259 248 235
274 272 274 278 285 292 296 315 311 297 246 225 219 227 251 233 233 219 208 200 201 197 215 161 225 240 245 229 267 267 260 262 269 204 239 252 256 267 276 273 261 267 262 251 241
277 276 274 277 280 287 295 301 284 272 297 256 248 248 253 253 246 230 212 185 183 220 150 180 239 251 251 223 226 234 261 265 281 238 216 271 270 271 265 264 268 270 268 258 247
279 277 276 277 278 279 280 282 279 279 253 265 241 244 246 241 237 244 205 200 196 204 205 230 259 103 195 209 206 229 235 255 262 319 232 290 273 239 259 253 269 264 260 253 239
287 281 279 281 284 266 263 252 232 323 258 236 223 224 220 201 242 216 194 198 203 234 193 242 253 223 204 229 205 240 230 244 259 289 277 5 290 281 260 251 256 271 260 245 244
293 288 281 273 236 232 229 190 154 17 276 51 182 211 175 187 125 194 191 202 214 183 177 231 188 196 213 232 179 247 120 180 206 250 312 254 268 278 139 248 260 259 268 243 232
288 288 286 281 247 218 194 165 137 221 243 244 173 181 165 213 186 125 169 165 133 173 240 256 148 221 213 75 145 134 117 154 157 251 255 256 228 273 206 211 251 264 251 233 217
271 269 273 274 254 209 181 150 227 232 51 198 196 187 198 189 196 186 169 182 190 178 218 207 223 175 176 149 127 197 178 280 259 231 265 163 237 264 279 236 233 253 262 226 213
257 255 263 263 256 198 169 170 238 191 209 97 156 156 197 167 209 183 171 216 232 215 189 222 255 184 184 218 216 185 219 206 266 280 288 112 252 276 226 248 250 262 261 247 231
249 240 240 245 247 199 172 213 236 216 190 180 84 208 217 228 214 179 209 219 207 192 208 201 254 100 228 141 179 162 196 230 282 115 284 257 261 236 189 247 244 252 249 249 248
239 235 235 232 221 198 192 237 231 202 153 186 221 198 233 219 187 191 195 195 229 199 224 258 261 111 114 146 31 221 139 141 194 266 263 276 283 276 236 242 214 239 237 246 247
250 218 235 230 197 182 207 231 248 243 210 200 232 240 235 233 214 221 241 215 198 200 205 197 210 212 150 202 193 168 207 228 310 233 259 271 274 115 161 170 202 224 232 246 250
224 226 223 183 182 220 226 227 225 237 241 255 262 260 246 233 239 238 245 226 189 162 171 207 203 232 236 143 295 250 234 217 224 225 234 257 271 87 78 154 188 213 248 257 247
231 227 192 187 197 209 221 238 246 234 219 217 230 223 223 239 238 240 249 239 197 173 175 171 212 240 254 220 201 214 213 227 239 255 250 234 257 208 278 265 234 255 257 259 262
254 163 200 210 242 215 214 225 231 231 241 230 254 242 229 246 241 249 247 210 206 205 196 175 166 221 237 249 99 197 225 220 222 233 253 240 258 276 272 275 281 276 270 272 268
238 213 186 185 234 229 228 215 236 238 214 214 240 226 229 242 250 245 257 249 180 179 108 171 231 243 253 262 271 279 273 246 236 239 243 256 262 264 279 277 276 280 279 277 272
253 212 192 190 217 218 228 222 231 240 228 224 221 226 231 234 236 254 236 247 231 207 205 192 242 240 245 254 259 260 255 256 258 254 254 259 267 268 270 280 281 275 271 273 273
269 266 256 194 197 208 223 225 228 236 244 238 229 229 236 230 225 240 253 259 207 227 221 201 212 210 240 235 244 248 240 248 256 262 258 259 254 270 271 267 265 272 280 269 267
Wind_Speed_850mb
8 10 12 15 17 19 21 22 23 23 22 17 10 3 1 1 3 8 10 10 9 6 2 4 3 11 11 5 5 6 7 8 7 11 5 16 18 12 14 11 18 23 23 21 22
11 12 14 16 18 19 20 22 22 22 22 19 14 5 9 11 12 15 15 12 7 4 3 4 5 17 6 3 2 7 6 6 3 8 6 14 22 16 13 19 21 28 44 37 29
15 16 15 16 19 21 21 20 22 23 23 22 18 14 8 13 16 17 24 17 9 3 1 3 5 16 7 6 4 3 6 3 6 12 10 11 13 14 16 22 34 38 37 48 44
20 21 20 20 21 22 25 26 25 25 25 25 22 16 12 11 10 13 26 22 14 8 4 5 4 7 7 7 6 7 9 7 3 9 10 10 9 13 34 45 25 26 32 37 53
27 26 27 28 27 27 27 29 30 29 29 27 26 20 15 15 26 20 27 26 21 14 10 9 8 7 7 8 5 9 7 10 12 13 16 13 22 20 37 45 45 45 37 40 49
33 32 32 32 33 33 33 32 34 33 32 32 29 24 18 17 20 23 29 30 27 21 16 12 9 7 4 7 9 4 9 15 13 17 14 14 14 6 16 21 36 47 50 49 53
37 37 38 37 37 37 37 36 38 37 35 35 32 25 28 32 25 25 28 31 29 24 19 14 10 6 7 4 4 3 13 14 24 12 10 11 16 24 44 32 30 39 43 49 57
43 42 41 42 40 43 41 40 40 39 39 37 32 24 20 27 26 30 29 28 25 21 17 13 11 7 5 8 2 6 5 9 9 17 6 10 30 24 22 29 37 39 40 48 58
48 47 46 44 43 45 46 43 43 42 37 34 24 18 16 22 26 31 29 24 22 18 14 11 9 6 7 7 9 10 20 17 9 23 8 22 30 8 20 27 41 46 46 50 53
54 52 49 46 44 46 46 45 44 40 31 21 24 10 29 17 19 22 28 27 19 17 9 10 6 7 6 13 25 23 15 17 21 10 17 20 40 44 54 38 66 70 58 56 56
52 54 52 47 45 44 46 36 17 12 14 17 9 13 13 20 17 19 27 27 20 13 13 5 13 32 34 34 27 14 15 33 31 7 11 35 39 49 62 56 69 71 62 57 62
51 53 52 47 43 38 38 20 20 17 21 31 43 49 52 37 17 30 29 23 19 22 14 8 30 37 2 12 18 18 26 40 27 5 14 27 43 46 45 61 71 73 72 53 49
50 52 52 44 39 35 30 25 19 14 13 18 40 38 48 44 29 36 37 23 14 19 28 33 24 6 17 16 21 23 35 29 22 10 13 21 33 15 14 37 50 67 66 46 46
42 46 50 39 29 27 17 9 4 5 11 11 11 14 19 18 10 27 41 16 10 23 18 20 13 21 15 22 27 27 20 22 16 10 24 6 39 27 21 21 23 62 42 37 44
37 34 37 29 16 17 12 10 7 3 18 3 6 7 15 15 7 8 33 18 16 15 13 12 11 15 20 18 23 11 5 10 6 15 12 24 20 20 3 13 35 34 42 38 42
34 30 30 22 22 26 18 13 11 7 21 6 8 8 8 8 4 9 10 6 5 8 10 15 3 9 6 6 1 16 6 3 3 6 19 36 30 11 9 14 18 25 28 28 30
39 35 38 27 15 26 28 20 9 18 6 14 13 12 6 12 11 14 14 17 16 11 20 9 20 7 8 8 5 10 8 12 14 12 27 5 16 35 25 22 26 33 27 21 25
47 48 50 40 22 25 41 9 31 17 33 6 9 11 19 25 14 19 14 16 24 11 4 12 26 26 22 33 11 22 15 12 24 30 46 15 23 27 21 37 50 25 37 24 28
58 65 67 57 35 36 31 20 28 23 16 16 5 11 16 10 11 16 27 19 23 41 27 18 28 5 3 4 10 17 16 5 9 4 18 24 48 15 13 24 18 37 32 47 49
77 80 90 70 47 48 13 51 25 25 18 14 39 33 41 31 19 22 24 14 17 31 47 5 21 7 6 2 1 9 13 8 7 13 37 52 60 34 22 30 18 21 37 49 45
86 33 39 63 64 40 23 30 22 38 27 26 43 33 31 33 30 25 32 14 18 13 20 8 13 8 10 24 31 12 12 10 5 12 20 40 30 8 12 11 21 27 44 34 41
62 10 37 54 31 15 23 23 17 17 24 22 8 25 45 33 28 27 39 30 40 25 23 17 8 24 46 5 6 18 32 37 19 20 20 26 62 8 13 9 12 20 32 31 28
23 23 46 89 21 26 26 22 24 25 24 25 30 25 21 32 22 33 39 27 31 25 23 19 10 14 26 11 4 16 19 24 35 32 62 26 56 19 23 7 17 23 41 43 42
20 5 11 50 35 38 38 44 32 38 33 17 11 14 7 23 28 28 35 10 22 20 5 31 10 26 41 43 2 12 27 38 47 37 46 51 65 81 61 47 47 61 51 62 73
23 11 26 12 26 29 35 13 43 28 29 31 13 41 44 35 46 40 50 40 10 10 4 14 28 30 43 55 46 47 36 38 57 59 50 63 51 70 63 49 54 70 62 73 73
24 10 24 17 54 48 43 35 55 54 39 30 37 43 52 54 46 40 45 42 32 9 17 10 36 37 52 60 61 63 45 63 59 65 48 49 57 63 75 93 76 106 76 84 86
30 41 46 29 24 30 45 54 59 53 59 73 58 41 43 52 81 98 79 47 20 32 33 19 16 19 42 48 41 29 68 64 80 70 57 60 71 66 68 64 65 96 76 77 88
Wind_Direction_850mb
334 343 349 355 1 6 10 11 13 15 24 26 29 247 271 348 223 218 209 178 170 167 144 201 259 187 184 201 179 167 227 234 218 193 159 168 199 194 208 201 204 208 223 227 204
313 321 330 335 340 347 351 353 355 356 357 2 359 331 250 250 272 254 222 203 196 177 175 189 187 171 188 181 189 226 257 238 192 189 222 195 215 198 197 206 230 233 235 232 221
307 314 318 321 325 328 331 334 337 339 340 340 341 329 279 262 278 243 216 210 214 216 210 189 167 180 184 175 190 213 263 175 231 225 211 211 219 203 228 232 232 227 230 231 222
307 313 316 319 322 323 324 325 325 326 328 328 327 319 292 250 245 209 206 215 217 237 283 284 223 185 193 204 188 239 243 225 229 203 188 216 179 217 224 245 253 248 243 236 221
297 301 306 311 314 316 318 319 318 318 319 320 319 310 287 252 249 237 217 218 223 231 243 253 239 185 223 194 197 230 216 225 245 241 230 226 235 246 246 251 255 258 253 238 227
291 296 299 303 308 311 312 313 310 310 312 311 309 299 273 246 257 235 224 224 229 233 241 247 236 245 187 203 223 198 256 259 263 246 237 231 245 226 256 228 231 243 247 242 233
287 291 295 299 304 305 308 310 306 306 303 302 300 288 269 267 262 238 229 231 236 237 237 245 236 211 175 208 234 300 290 274 228 225 237 210 253 233 256 248 243 241 239 236 236
281 285 289 294 300 302 306 309 306 305 302 299 295 277 258 263 250 240 233 234 233 233 236 232 230 224 179 159 127 242 252 258 155 174 198 199 273 245 254 241 244 241 235 237 234
274 278 282 286 292 296 301 306 306 304 298 288 275 250 262 257 243 236 225 221 221 221 219 217 211 195 161 226 258 215 272 235 272 205 146 211 272 255 246 247 256 251 243 242 238
270 272 276 281 287 292 297 305 307 301 282 265 245 242 242 240 234 226 218 214 208 204 194 202 189 227 202 204 259 266 247 253 261 186 214 225 256 275 271 250 262 267 259 248 235
274 272 274 278 285 292 296 315 311 297 246 225 219 227 251 233 233 219 208 200 201 197 215 161 225 240 245 229 267 267 260 262 269 204 239 252 256 267 276 273 261 267 262 251 241
277 276 274 277 280 287 295 301 284 272 297 256 248 248 253 253 246 230 212 185 183 220 150 180 239 251 251 223 226 234 261 265 281 238 216 271 270 271 265 264 268 270 268 258 247
279 277 276 277 278 279 280 282 279 279 253 265 241 244 246 241 237 244 205 200 196 204 205 230 259 103 195 209 206 229 235 255 262 319 232 290 273 239 259 253 269 264 260 253 239
287 281 279 281 284 266 263 252 232 323 258 236 223 224 220 201 242 216 194 198 203 234 193 242 253 223 204 229 205 240 230 244 259 289 277 5 290 281 260 251 256 271 260 245 244
293 288 281 273 236 232 229 190 154 17 276 51 182 211 175 187 125 194 191 202 214 183 177 231 188 196 213 232 179 247 120 180 206 250 312 254 268 278 139 248 260 259 268 243 232
288 288 286 281 247 218 194 165 137 221 243 244 173 181 165 213 186 125 169 165 133 173 240 256 148 221 213 75 145 134 117 154 157 251 255 256 228 273 206 211 251 264 251 233 217
271 269 273 274 254 209 181 150 227 232 51 198 196 187 198 189 196 186 169 182 190 178 218 207 223 175 176 149 127 197 178 280 259 231 265 163 237 264 279 236 233 253 262 226 213
257 255 263 263 256 198 169 170 238 191 209 97 156 156 197 167 209 183 171 216 232 215 189 222 255 184 184 218 216 185 219 206 266 280 288 112 252 276 226 248 250 262 261 247 231
249 240 240 245 247 199 172 213 236 216 190 180 84 208 217 228 214 179 209 219 207 192 208 201 254 100 228 141 179 162 196 230 282 115 284 257 261 236 189 247 244 252 249 249 248
239 235 235 232 221 198 192 237 231 202 153 186 221 198 233 219 187 191 195 195 229 199 224 258 261 111 114 146 31 221 139 141 194 266 263 276 283 276 236 242 214 239 237 246 247
250 218 235 230 197 182 207 231 248 243 210 200 232 240 235 233 214 221 241 215 198 200 205 197 210 212 150 202 193 168 207 228 310 233 259 271 274 115 161 170 202 224 232 246 250
224 226 223 183 182 220 226 227 225 237 241 255 262 260 246 233 239 238 245 226 189 162 171 207 203 232 236 143 295 250 234 217 224 225 234 257 271 87 78 154 188 213 248 257 247
231 227 192 187 197 209 221 238 246 234 219 217 230 223 223 239 238 240 249 239 197 173 175 171 212 240 254 220 201 214 213 227 239 255 250 234 257 208 278 265 234 255 257 259 262
254 163 200 210 242 215 214 225 231 231 241 230 254 242 229 246 241 249 247 210 206 205 196 175 166 221 237 249 99 197 225 220 222 233 253 240 258 276 272 275 281 276 270 272 268
238 213 186 185 234 229 228 215 236 238 214 214 240 226 229 242 250 245 257 249 180 179 108 171 231 243 253 262 271 279 273 246 236 239 243 256 262 264 279 277 276 280 279 277 272
253 212 192 190 217 218 228 222 231 240 228 224 221 226 231 234 236 254 236 247 231 207 205 192 242 240 245 254 259 260 255 256 258 254 254 259 267 268 270 280 281 275 271 273 273
269 266 256 194 197 208 223 225 228 236 244 238 229 229 236 230 225 240 253 259 207 227 221 201 212 210 240 235 244 248 240 248 256 262 258 259 254 270 271 267 265 272 280 269 267